Weather History for Langdon, ND

Change the Weather History Date:

Thursday, October 4, 2012

  Actual Average (KDVL) Record (KDVL)
Temperature  
Mean Temperature 34 °F -  
Max Temperature 35 °F 59 °F 94 °F (1963)
Min Temperature 30 °F 37 °F 21 °F (1968)
Degree Days  
Heating Degree Days 32    
Moisture  
Dew Point 32 °F    
Average Humidity 96    
Maximum Humidity 100    
Minimum Humidity 87    
Precipitation  
Precipitation 1.29 in - - ()
Sea Level Pressure  
Sea Level Pressure 30.12 in    
Wind  
Wind Speed 25 mph (NNW)    
Max Wind Speed 34 mph    
Max Gust Speed 46 mph    
Visibility 6 miles    
Events Rain , Snow    
Averages and records for this station are not official NWS values.
T = Trace of Precipitation, MM = Missing Value Source: NWS Daily Summary

Daily Weather History Graph

Daily Weather History Graph

Search for Another Location

Airport:

Trip Planner

Search our weather history database for the weather conditions in past years. The results will help you decide how hot, cold, wet, or windy it might be!

Date:

Astronomy

Oct. 04, 2012 Rise Set
Actual Time 7:38 AM CDT 7:05 PM CDT
Civil Twilight 7:06 AM CDT 7:36 PM CDT
Nautical Twilight 6:30 AM CDT 8:12 PM CDT
Astronomical Twilight 5:53 AM CDT 8:49 PM CDT
Moon 9:18 PM CDT (10/4) 12:19 PM CDT (10/4)
Length of Visible Light 12h 29m
Length of Day
11h 26m
Waning Gibbous, 82% of the Moon is Illuminated
Oct 4
Waning Gibbous
Oct 8
Last Quarter
Oct 15
New
Oct 21
First Quarter
Oct 29
Full

Hourly Weather History & Observations

Time (CDT) Temp. Windchill Dew Point Humidity Pressure Visibility Wind Dir Wind Speed Gust Speed Precip Events Conditions
12:15 AM 35.6 °F 24.2 °F 35.6 °F 100% 30.11 in 5.0 mi North 21.9 mph 31.1 mph 0.01 in   Overcast
12:35 AM 35.6 °F 23.7 °F 33.8 °F 93% 30.11 in 4.0 mi North 24.2 mph 28.8 mph 0.05 in   Overcast
12:55 AM 33.8 °F 21.3 °F 33.8 °F 100% 30.11 in 4.0 mi North 24.2 mph 32.2 mph 0.10 in   Overcast
1:15 AM 33.8 °F 22.2 °F 33.8 °F 100% 30.11 in 5.0 mi North 20.7 mph 31.1 mph 0.02 in   Overcast
1:35 AM 33.8 °F 21.9 °F 33.8 °F 100% 30.11 in 5.0 mi North 21.9 mph 29.9 mph 0.06 in   Overcast
1:55 AM 33.8 °F 21.6 °F 33.8 °F 100% 30.11 in 6.0 mi North 23.0 mph 28.8 mph 0.07 in   Overcast
2:15 AM 32.0 °F 18.4 °F 32.0 °F 100% 30.10 in 3.0 mi North 26.5 mph 32.2 mph 0.03 in Snow Light Snow
2:35 AM 32.0 °F 20.1 °F 32.0 °F 100% 30.11 in 2.0 mi North 19.6 mph 29.9 mph 0.14 in Snow Light Snow
2:55 AM 32.0 °F 19.5 °F 32.0 °F 100% 30.10 in 3.0 mi North 21.9 mph 29.9 mph 0.20 in Snow Light Snow
3:15 AM 32.0 °F 18.9 °F 32.0 °F 100% 30.09 in 2.0 mi North 24.2 mph 33.4 mph 0.06 in Snow Light Snow
3:35 AM 32.0 °F 18.6 °F 32.0 °F 100% 30.10 in 1.8 mi North 25.3 mph 31.1 mph 0.19 in Snow Light Snow
3:55 AM 32.0 °F 18.9 °F 32.0 °F 100% 30.10 in 2.5 mi North 24.2 mph 35.7 mph 0.27 in Snow Light Snow
4:15 AM 32.0 °F 18.9 °F 32.0 °F 100% 30.10 in 2.5 mi North 24.2 mph 32.2 mph 0.03 in Snow Light Snow
4:35 AM 32.0 °F 18.9 °F 32.0 °F 100% 30.10 in 3.0 mi North 24.2 mph 31.1 mph 0.07 in Snow Light Snow
4:55 AM 32.0 °F 18.4 °F 32.0 °F 100% 30.10 in 4.0 mi North 26.5 mph 33.4 mph 0.10 in Snow Light Snow
5:15 AM 32.0 °F 19.5 °F 32.0 °F 100% 30.10 in 3.0 mi North 21.9 mph 27.6 mph 0.02 in Snow Light Snow
5:35 AM 32.0 °F 19.5 °F 32.0 °F 100% 30.11 in 2.0 mi North 21.9 mph 31.1 mph 0.09 in Snow Light Snow
5:55 AM 32.0 °F 18.9 °F 32.0 °F 100% 30.10 in 3.0 mi North 24.2 mph 31.1 mph 0.12 in Snow Light Snow
6:15 AM 32.0 °F 20.1 °F 32.0 °F 100% 30.11 in 3.0 mi North 19.6 mph 27.6 mph 0.01 in Snow Light Snow
6:35 AM 32.0 °F 19.5 °F 32.0 °F 100% 30.11 in 3.0 mi North 21.9 mph 27.6 mph 0.04 in Snow Light Snow
6:55 AM 32.0 °F 19.5 °F 32.0 °F 100% 30.10 in 2.0 mi North 21.9 mph 27.6 mph 0.09 in Snow Light Snow
7:15 AM 32.0 °F 19.2 °F 32.0 °F 100% 30.10 in 3.0 mi North 23.0 mph 34.5 mph 0.02 in Snow Light Snow
7:35 AM 32.0 °F 18.9 °F 32.0 °F 100% 30.09 in 2.5 mi North 24.2 mph 32.2 mph 0.05 in Snow Light Snow
7:55 AM 32.0 °F 19.5 °F 32.0 °F 100% 30.09 in 3.0 mi North 21.9 mph 34.5 mph 0.06 in Rain Light Rain
8:15 AM 32.0 °F 18.9 °F 32.0 °F 100% 30.08 in 2.0 mi NNW 24.2 mph 32.2 mph 0.01 in Snow Light Snow
8:35 AM 32.0 °F 18.6 °F 32.0 °F 100% 30.08 in 1.8 mi North 25.3 mph 35.7 mph 0.02 in Snow Light Snow
8:55 AM 32.0 °F 19.2 °F 32.0 °F 100% 30.08 in 5.0 mi North 23.0 mph 35.7 mph 0.04 in Rain Light Rain
9:15 AM 32.0 °F 18.6 °F 32.0 °F 100% 30.08 in 8.0 mi North 25.3 mph 38.0 mph N/A Rain Light Rain
9:35 AM 32.0 °F 18.1 °F 32.0 °F 100% 30.08 in 5.0 mi North 27.6 mph 36.8 mph N/A Rain Light Rain
9:55 AM 32.0 °F 17.4 °F 32.0 °F 100% 30.09 in 3.0 mi NNW 31.1 mph 40.3 mph N/A Rain Light Rain
10:15 AM 32.0 °F 18.4 °F 32.0 °F 100% 30.09 in 2.0 mi NNW 26.5 mph 34.5 mph 0.02 in   Overcast
10:35 AM 32.0 °F 17.6 °F 32.0 °F 100% 30.09 in 2.5 mi NNW 29.9 mph 36.8 mph 0.04 in Snow Light Snow
10:55 AM 33.8 °F 19.9 °F 32.0 °F 93% 30.09 in 2.5 mi NNW 31.1 mph 38.0 mph 0.08 in Snow Light Snow
11:15 AM 33.8 °F 20.3 °F 32.0 °F 93% 30.09 in 3.0 mi NNW 28.8 mph 34.5 mph 0.02 in   Overcast
11:35 AM 33.8 °F 20.3 °F 33.8 °F 100% 30.10 in 2.5 mi NNW 28.8 mph 35.7 mph 0.05 in Snow Light Snow
11:55 AM 33.8 °F 20.1 °F 33.8 °F 100% 30.09 in 2.5 mi NNW 29.9 mph 38.0 mph 0.08 in Snow Light Snow
12:15 PM 33.8 °F 20.5 °F 33.8 °F 100% 30.10 in 3.0 mi NNW 27.6 mph 38.0 mph 0.01 in   Overcast
12:35 PM 35.6 °F 22.3 °F 33.8 °F 93% 30.10 in 3.0 mi NNW 31.1 mph 38.0 mph 0.04 in   Overcast
12:55 PM 35.6 °F 22.1 °F 33.8 °F 93% 30.10 in 3.0 mi NNW 32.2 mph 41.4 mph 0.06 in   Overcast
1:35 PM 35.6 °F 22.3 °F 35.6 °F 100% 30.11 in 5.0 mi NNW 31.1 mph 42.6 mph 0.01 in Rain Light Rain
1:55 PM 35.6 °F 22.1 °F 35.6 °F 100% 30.11 in 6.0 mi NNW 32.2 mph 43.7 mph 0.01 in Rain Light Rain
2:15 PM 35.6 °F 21.7 °F 33.8 °F 93% 30.11 in 8.0 mi NNW 34.5 mph 46.0 mph N/A Rain Light Rain
2:35 PM 35.6 °F 21.9 °F 33.8 °F 93% 30.11 in 9.0 mi NNW 33.4 mph 38.0 mph N/A Rain Light Rain
2:55 PM 35.6 °F 22.1 °F 33.8 °F 93% 30.11 in 9.0 mi NNW 32.2 mph 43.7 mph N/A Rain Light Rain
3:15 PM 35.6 °F 21.9 °F 33.8 °F 93% 30.11 in 5.0 mi NNW 33.4 mph 42.6 mph N/A Rain Light Rain
3:35 PM 35.6 °F 21.9 °F 33.8 °F 93% 30.12 in 5.0 mi NNW 33.4 mph 42.6 mph N/A Rain Light Rain
3:55 PM 35.6 °F 22.5 °F 32.0 °F 87% 30.13 in 10.0 mi NW 29.9 mph 40.3 mph 0.01 in Rain Light Rain
4:15 PM 35.6 °F 22.7 °F 32.0 °F 87% 30.13 in 10.0 mi NNW 28.8 mph 44.9 mph N/A Rain Light Rain
4:35 PM 35.6 °F 22.3 °F 32.0 °F 87% 30.13 in 10.0 mi NNW 31.1 mph 39.1 mph N/A   Overcast
5:15 PM 35.6 °F 23.2 °F 32.0 °F 87% 30.15 in 10.0 mi NW 26.5 mph 38.0 mph N/A Rain Light Rain
5:55 PM 33.8 °F 20.5 °F 32.0 °F 93% 30.15 in 10.0 mi NNW 27.6 mph 40.3 mph N/A   Overcast
6:15 PM 33.8 °F 19.9 °F 32.0 °F 93% 30.15 in 10.0 mi NNW 31.1 mph 40.3 mph N/A   Mostly Cloudy
6:35 PM 33.8 °F 21.0 °F 32.0 °F 93% 30.16 in 10.0 mi NW 25.3 mph 39.1 mph N/A   Mostly Cloudy
6:55 PM 32.0 °F 19.8 °F 32.0 °F 100% 30.16 in 10.0 mi NNW 20.7 mph 32.2 mph N/A   Mostly Cloudy
7:15 PM 32.0 °F 18.9 °F 30.2 °F 93% 30.17 in 10.0 mi NNW 24.2 mph 32.2 mph N/A   Mostly Cloudy
7:35 PM 32.0 °F 17.9 °F 30.2 °F 93% 30.17 in 10.0 mi NNW 28.8 mph 35.7 mph N/A   Scattered Clouds
7:55 PM 32.0 °F 19.5 °F 30.2 °F 93% 30.17 in 10.0 mi NW 21.9 mph 32.2 mph N/A   Partly Cloudy
8:15 PM 32.0 °F 18.4 °F 28.4 °F 87% 30.17 in 10.0 mi NW 26.5 mph 34.5 mph N/A   Mostly Cloudy
8:35 PM 32.0 °F 18.9 °F 28.4 °F 87% 30.17 in 10.0 mi NW 24.2 mph 31.1 mph N/A   Partly Cloudy
8:55 PM 32.0 °F 18.6 °F 28.4 °F 87% 30.17 in 10.0 mi NW 25.3 mph 34.5 mph N/A   Clear
9:15 PM 32.0 °F 19.2 °F 28.4 °F 87% 30.17 in 10.0 mi NW 23.0 mph 28.8 mph N/A   Scattered Clouds
9:35 PM 32.0 °F 18.9 °F 28.4 °F 87% 30.17 in 10.0 mi NNW 24.2 mph 28.8 mph N/A   Mostly Cloudy
9:55 PM 32.0 °F 19.2 °F 28.4 °F 87% 30.17 in 10.0 mi NW 23.0 mph 29.9 mph N/A   Mostly Cloudy
10:15 PM 32.0 °F 18.6 °F 28.4 °F 87% 30.17 in 10.0 mi NW 25.3 mph 31.1 mph N/A   Scattered Clouds
10:35 PM 32.0 °F 18.9 °F 28.4 °F 87% 30.17 in 10.0 mi NW 24.2 mph 32.2 mph N/A   Scattered Clouds
10:55 PM 32.0 °F 19.5 °F 28.4 °F 87% 30.17 in 10.0 mi NW 21.9 mph 31.1 mph N/A   Mostly Cloudy
11:15 PM 32.0 °F 19.2 °F 28.4 °F 87% 30.17 in 10.0 mi NW 23.0 mph 33.4 mph N/A   Mostly Cloudy
11:55 PM 30.2 °F 17.4 °F 28.4 °F 93% 30.17 in 10.0 mi NW 20.7 mph 31.1 mph N/A   Scattered Clouds